N0JY-4 Weather Reports


Display with metric or nautical units.
time (UTC)temp
F
wind
direction
speed
MPH
gust
MPH
rain 1hr
in
rain 24hr
in
rain mn
in
humidity
%
barometer
mb
20170523123401 66 249 3.0 4.0 0.00 0.25 0.53 1013.0
20170523122629 66 181 0.0 0.0 0.00 0.25 0.53 1012.7
20170523121903 66 181 0.0 0.0 0.00 0.25 0.53 1012.6
20170523121137 65 181 0.0 0.0 0.00 0.25 0.53 1012.5
20170523120410 66 181 0.0 0.0 0.00 0.25 0.53 1012.5
20170523115640 65 181 0.0 0.0 0.00 0.25 0.53 1012.4
20170523114912 65 226 3.0 1.0 0.00 0.25 0.53 1012.3
20170523114146 65 214 2.0 2.0 0.00 0.25 0.53 1012.1
20170523113420 65 203 3.0 3.0 0.00 0.25 0.53 1012.1
20170523112649 65 153 2.0 2.0 0.00 0.25 0.53 1012.0
20170523111155 65 11 0.0 0.0 0.00 0.25 0.53 1012.0
20170523110427 66 11 0.0 0.0 0.00 0.25 0.53 1012.0
20170523105655 66 7 0.0 0.0 0.14 0.25 0.53 1012.0
20170523104928 66 4 2.0 1.0 0.14 0.25 0.53 1011.9
20170523104159 67 8 2.0 1.0 0.14 0.25 0.53 1011.8
20170523103432 67 336 2.0 3.0 0.14 0.25 0.53 1011.6
20170523102700 67 346 1.0 0.0 0.14 0.25 0.53 1011.9
20170523101933 67 270 4.0 6.0 0.14 0.25 0.53 1012.0
20170523101201 67 284 5.0 4.0 0.14 0.25 0.53 1012.0
20170523100434 67 226 11.0 6.0 0.14 0.25 0.53 1011.4
20170523095701 66 174 9.0 12.0 0.39 0.25 0.53 1009.0
20170523094936 66 70 6.0 5.0 0.39 0.25 0.53 1008.5
20170523094209 66 52 6.0 7.0 0.39 0.25 0.52 1008.1
20170523093441 66 107 12.0 12.0 0.39 0.25 0.52 1007.9
20170523092704 66 114 13.0 18.0 0.39 0.25 0.50 1010.2
20170523091937 66 165 7.0 8.0 0.39 0.25 0.47 1011.8
20170523091211 66 180 6.0 6.0 0.39 0.25 0.45 1012.4
20170523090442 66 181 6.0 6.0 0.39 0.25 0.42 1012.8
20170523085709 66 195 5.0 8.0 0.00 0.25 0.38 1013.3
20170523084943 66 149 5.0 6.0 0.00 0.25 0.33 1013.6
20170523084217 67 321 4.0 3.0 0.00 0.25 0.29 1014.3
20170523083450 67 284 3.0 3.0 0.00 0.25 0.08 1013.7
20170523082718 67 231 1.0 2.0 0.00 0.25 0.04 1013.3
20170523081951 67 221 2.0 3.0 0.00 0.25 0.02 1013.2
20170523081224 67 6 3.0 3.0 0.00 0.25 0.00 1013.0
20170523080456 67 91 1.0 1.0 0.00 0.25 0.00 1013.4
20170523075725 67 145 3.0 5.0 0.00 0.25 0.00 1013.5
20170523074958 66 142 4.0 3.0 0.00 0.25 0.00 1013.0
20170523074231 67 84 3.0 5.0 0.00 0.25 0.00 1012.7
20170523073505 67 65 5.0 4.0 0.00 0.25 0.00 1012.7
20170523072733 67 69 6.0 7.0 0.00 0.25 0.00 1012.3
20170523072007 67 93 5.0 4.0 0.00 0.25 0.00 1012.3
20170523071240 67 53 7.0 4.0 0.00 0.25 0.00 1012.2
20170523070513 67 48 6.0 6.0 0.00 0.25 0.00 1012.2
20170523065741 67 90 6.0 7.0 0.00 0.25 0.00 1012.3
20170523065014 67 66 6.0 4.0 0.00 0.25 0.00 1012.6
20170523064247 67 65 4.0 4.0 0.00 0.25 0.00 1012.7
20170523063520 67 59 5.0 3.0 0.00 0.25 0.00 1012.8
20170523062749 67 62 5.0 5.0 0.00 0.25 0.00 1012.9
20170523062023 67 84 5.0 4.0 0.00 0.25 0.00 1013.2
20170523061256 67 122 4.0 3.0 0.00 0.25 0.00 1013.4
20170523060530 67 100 3.0 2.0 0.00 0.25 0.00 1013.3
20170523055759 68 103 4.0 4.0 0.00 0.25 0.00 1013.3
20170523055031 68 107 5.0 7.0 0.00 0.25 0.00 1013.6
20170523054305 68 134 5.0 4.0 0.00 0.25 0.00 1013.7
20170523053539 68 138 4.0 5.0 0.00 0.25 0.00 1013.7
20170523052807 68 124 5.0 4.0 0.00 0.25 0.00 1013.7
20170523052041 68 162 4.0 5.0 0.00 0.25 0.00 1013.9
20170523051314 68 152 7.0 6.0 0.00 0.25 0.00 1013.6
20170523050547 68 149 7.0 8.0 0.00 0.25 0.00 1013.7
20170523045815 69 94 4.0 7.0 0.00 0.79 0.25 1013.8
20170523045048 69 89 5.0 5.0 0.00 0.79 0.25 1013.6
20170523044321 69 110 4.0 2.0 0.00 0.79 0.25 1013.5
20170523043555 69 100 2.0 3.0 0.00 0.79 0.25 1013.9
20170523042824 70 73 4.0 5.0 0.00 0.79 0.25 1013.6
20170523042058 70 31 5.0 4.0 0.00 0.79 0.25 1013.8
20170523041329 70 70 4.0 7.0 0.00 0.79 0.25 1013.8
20170523040602 70 44 6.0 7.0 0.00 0.79 0.25 1013.6
20170523035833 71 69 8.0 8.0 0.00 0.79 0.25 1013.5
20170523035106 71 345 6.0 6.0 0.00 0.79 0.25 1013.6
20170523034338 71 128 15.0 11.0 0.00 0.79 0.25 1011.6
20170523033612 71 113 12.0 11.0 0.00 0.79 0.25 1012.5
20170523032841 71 146 9.0 10.0 0.00 0.79 0.25 1013.5
20170523032114 71 153 9.0 7.0 0.00 0.79 0.25 1013.7
20170523031347 72 132 8.0 8.0 0.00 0.79 0.25 1013.8
20170523030620 72 129 10.0 9.0 0.00 0.79 0.25 1013.6
20170523025848 72 121 7.0 6.0 0.00 0.79 0.25 1013.6
20170523025121 72 115 4.0 7.0 0.00 0.79 0.25 1013.9
20170523024355 72 139 3.0 4.0 0.00 0.79 0.25 1013.9
20170523023629 73 149 3.0 4.0 0.00 0.79 0.25 1013.9
20170523022858 73 148 4.0 3.0 0.00 0.79 0.25 1013.7
20170523022131 73 143 2.0 3.0 0.00 0.79 0.25 1013.7
20170523021405 73 132 3.0 2.0 0.00 0.79 0.25 1013.6
20170523020638 73 143 4.0 2.0 0.00 0.79 0.25 1013.3
20170523015908 74 166 3.0 4.0 0.00 0.79 0.25 1013.4
20170523015142 74 113 0.0 0.0 0.00 0.79 0.25 1013.3
20170523014413 74 113 0.0 0.0 0.00 0.79 0.25 1013.2
20170523013647 74 177 2.0 2.0 0.00 0.79 0.25 1013.0
20170523012917 75 166 1.0 1.0 0.00 0.79 0.25 1013.0
20170523012147 75 160 3.0 3.0 0.00 0.79 0.25 1012.9
20170523011421 75 148 2.0 3.0 0.00 0.79 0.25 1013.0
20170523010654 76 152 3.0 4.0 0.00 0.79 0.25 1012.9
20170523005924 76 145 4.0 5.0 0.00 0.79 0.25 1012.8
20170523005158 76 163 5.0 4.0 0.00 0.79 0.25 1013.0
20170523004431 76 143 4.0 4.0 0.00 0.79 0.25 1012.9
20170523003704 77 146 5.0 4.0 0.00 0.79 0.25 1012.8
20170523002933 77 139 5.0 4.0 0.00 0.79 0.25 1012.9
20170523002205 77 110 6.0 5.0 0.00 0.79 0.25 1012.7
20170523001438 77 127 4.0 6.0 0.00 0.79 0.25 1012.8
20170523000711 77 132 6.0 8.0 0.00 0.79 0.25 1012.8
20170522235940 77 174 5.0 4.0 0.00 0.79 0.25 1013.0
20170522235214 77 158 5.0 6.0 0.00 0.79 0.25 1013.0
20170522234441 77 136 6.0 6.0 0.00 0.79 0.25 1013.2
20170522233714 77 149 7.0 6.0 0.00 0.79 0.25 1012.9
20170522232943 77 159 6.0 8.0 0.00 0.79 0.25 1013.0
20170522232216 77 113 5.0 7.0 0.00 0.79 0.25 1013.2
20170522231449 77 113 8.0 6.0 0.00 0.79 0.25 1013.2
20170522230723 77 142 6.0 4.0 0.00 0.79 0.25 1013.3
20170522225951 78 108 6.0 9.0 0.00 0.79 0.25 1013.3
20170522225223 78 93 6.0 10.0 0.00 0.79 0.25 1013.4
20170522224457 79 91 6.0 5.0 0.00 0.79 0.25 1013.4
20170522223730 78 90 7.0 4.0 0.00 0.79 0.25 1013.5
20170522222959 78 114 6.0 4.0 0.00 0.79 0.25 1013.6
20170522222231 78 100 5.0 6.0 0.00 0.79 0.25 1013.8
20170522221504 78 108 5.0 6.0 0.00 0.79 0.25 1013.8
20170522220738 78 80 6.0 6.0 0.00 0.79 0.25 1013.9
20170522220008 78 150 5.0 7.0 0.00 0.79 0.25 1014.0
20170522215241 78 100 4.0 4.0 0.00 0.79 0.25 1014.0
20170522214515 78 63 5.0 6.0 0.00 0.79 0.25 1014.0
20170522213747 78 68 5.0 6.0 0.00 0.79 0.25 1014.2
20170522213016 78 111 4.0 6.0 0.00 0.79 0.25 1014.3
20170522212250 79 83 6.0 5.0 0.00 0.79 0.25 1014.3
20170522211522 79 165 8.0 6.0 0.00 0.79 0.25 1014.4
20170522210755 79 90 6.0 6.0 0.00 0.79 0.25 1014.5
20170522210025 78 86 5.0 10.0 0.00 0.79 0.25 1014.6
20170522205257 78 165 7.0 4.0 0.00 0.79 0.25 1014.7
20170522204531 78 135 5.0 7.0 0.00 0.79 0.25 1014.8
20170522203804 78 150 5.0 6.0 0.00 0.79 0.25 1014.9
20170522203032 78 153 3.0 7.0 0.00 0.79 0.25 1014.9
20170522202306 78 138 6.0 4.0 0.00 0.79 0.25 1015.0
20170522201537 78 120 6.0 6.0 0.00 0.79 0.25 1015.1
20170522200811 77 69 6.0 5.0 0.00 0.79 0.25 1015.2
20170522200039 77 124 6.0 7.0 0.00 0.79 0.25 1015.4
20170522195312 78 59 5.0 3.0 0.00 0.79 0.25 1015.5
20170522194546 78 121 4.0 3.0 0.00 0.79 0.25 1015.5
20170522193819 78 117 5.0 8.0 0.00 0.79 0.25 1015.4
20170522193045 78 101 6.0 4.0 0.00 0.79 0.25 1015.3
20170522192319 78 4 4.0 2.0 0.00 0.79 0.25 1015.4
20170522191552 78 73 4.0 5.0 0.00 0.79 0.25 1015.5
20170522191206 78 114 6.0 7.0 0.00 0.79 0.25 1015.6
20170522190825 78 114 6.0 7.0 0.00 0.79 0.25 1015.6
20170522190054 78 82 4.0 2.0 0.00 0.79 0.25 1015.7
20170522185327 77 134 5.0 5.0 0.00 0.79 0.25 1015.8
20170522184600 78 93 9.0 9.0 0.00 0.79 0.25 1015.9
20170522183834 76 91 5.0 9.0 0.00 0.79 0.25 1016.1
20170522183102 76 115 9.0 9.0 0.00 0.79 0.25 1016.5
20170522182336 76 93 3.0 3.0 0.00 0.79 0.25 1016.6
20170522181608 76 69 5.0 11.0 0.00 0.79 0.25 1016.7
20170522180841 75 52 8.0 6.0 0.00 0.79 0.25 1016.8
20170522180108 75 55 7.0 5.0 0.00 0.79 0.25 1016.9
20170522175341 75 100 8.0 8.0 0.00 0.79 0.25 1017.2
20170522174614 75 60 6.0 6.0 0.00 0.79 0.25 1017.4
20170522173848 75 37 5.0 6.0 0.00 0.79 0.25 1017.5
20170522173112 74 76 7.0 7.0 0.00 0.79 0.25 1017.6
20170522172347 74 14 6.0 7.0 0.00 0.79 0.25 1017.9
20170522171620 74 32 4.0 3.0 0.00 0.79 0.25 1017.9
20170522170853 74 30 4.0 8.0 0.00 0.79 0.25 1017.9
20170522170120 74 53 7.0 5.0 0.00 0.79 0.25 1018.1
20170522165353 73 42 7.0 7.0 0.00 0.79 0.25 1018.2
20170522164625 73 35 8.0 2.0 0.00 0.79 0.25 1018.3
20170522163859 73 86 5.0 5.0 0.00 0.79 0.25 1018.5
20170522163126 72 8 3.0 2.0 0.00 0.79 0.25 1018.6
20170522162400 72 37 6.0 3.0 0.00 0.79 0.25 1018.7
20170522161633 72 34 5.0 5.0 0.00 0.79 0.25 1018.8
20170522160906 72 76 1.0 6.0 0.00 0.79 0.25 1018.7
20170522160135 72 3 3.0 1.0 0.00 0.79 0.25 1018.9
20170522155409 72 100 4.0 8.0 0.00 0.79 0.25 1018.8
20170522154641 70 59 7.0 6.0 0.00 0.79 0.25 1018.7
20170522153915 70 68 5.0 4.0 0.00 0.79 0.25 1018.6
20170522153144 71 76 7.0 6.0 0.00 0.79 0.25 1018.8
20170522152417 70 51 5.0 6.0 0.00 0.79 0.25 1018.9
20170522151651 70 31 5.0 5.0 0.00 0.79 0.25 1019.0
20170522150924 69 104 5.0 5.0 0.00 0.79 0.25 1019.0
20170522150151 69 76 5.0 6.0 0.00 0.79 0.25 1018.9
20170522145424 69 30 6.0 5.0 0.00 0.79 0.25 1018.7
20170522144658 68 79 5.0 5.0 0.00 0.79 0.25 1018.8
20170522143932 67 79 6.0 11.0 0.00 0.79 0.25 1018.8
20170522143158 67 86 5.0 5.0 0.00 0.79 0.25 1018.9
20170522142431 67 118 4.0 4.0 0.00 0.79 0.25 1018.9
20170522141702 66 68 5.0 7.0 0.00 0.79 0.25 1018.9
20170522140934 66 80 5.0 4.0 0.00 0.79 0.25 1019.0
20170522140205 66 86 2.0 3.0 0.00 0.79 0.25 1019.1
20170522135439 65 49 3.0 4.0 0.00 0.79 0.25 1019.0
20170522135244 65 236 2.0 2.0 0.00 0.05 0.25 1022.9
20170522134711 65 60 1.0 7.0 0.00 0.79 0.25 1018.8
20170522133946 64 24 3.0 5.0 0.00 0.79 0.25 1018.7
20170522133214 64 87 6.0 6.0 0.00 0.79 0.25 1018.5
20170522132447 64 72 5.0 5.0 0.00 0.79 0.25 1018.5
20170522131720 63 79 5.0 5.0 0.00 0.79 0.25 1018.7
20170522130951 63 91 4.0 5.0 0.00 0.79 0.25 1018.8
20170522130217 63 51 5.0 3.0 0.00 0.79 0.25 1018.6
20170522125451 63 52 4.0 4.0 0.00 0.79 0.25 1018.7
20170522124724 63 51 4.0 2.0 0.00 0.79 0.25 1018.9
20170522123957 63 80 4.0 3.0 0.00 0.79 0.25 1018.9